Погода в Гостовском

Россия / Кировская область     58°19′52″N   46°41′03″E
темп.,
°C
ветер,
м/с
пор.,
м/с
влажн.,
%
обл.,
%
осадки,
мм/ч
давл.,
гПа
погр.,
м
14 августа, вс
вс1400:00+16ююз117463 0.0 102212
03:00+16зюз1174100 0.0 102211
06:00+16зюз117799 0.0 102214
09:00+19з12685 0.0 1022288
12:00+24сз235623 0.1 10221385
15:00+23зюз235963 0.8 10211085
18:00+21с13706 0.1 102168
21:00+17св226735 0.1 102229
15 августа, пн
пн1500:00+14св22756 0.0 102317
03:00+12всв227832 0.0 102413
06:00+14св12760 0.0 102472
09:00+21всв12510 0.0 1024523
12:00+24ссв12400 0.0 10241457
15:00+25с22350 0.0 10241748
18:00+21ссв22590 0.0 102418
21:00+15всв11710 0.0 102511
16 августа, вт
вт1600:00+14ююв11751 0.0 102510
03:00+13ю01775 0.0 102610
06:00+15юв00745 0.0 102726
09:00+22ю115021 0.0 1027430
12:00+26юв124013 0.0 10261592
15:00+26ююв113967 0.0 10251996
18:00+22ююв1264100 0.0 102514
21:00+17ю1170100 0.0 102511
17 августа, ср
ср1700:00+15зюз11796 0.0 102511
03:00+14юв008333 0.0 102511
06:00+16ююв117817 0.0 102532
09:00+22ю12529 0.0 1025484
12:00+25ю22415 0.0 10231690
15:00+26ю11394 0.0 10231944
18:00+23юз11610 0.0 102211
21:00+17сз11750 0.0 102311
18 августа, чт
чт1800:00+16ссв11780 0.0 102211
03:00+15ссз11820 0.0 102211
06:00+17с11790 0.0 102326
09:00+23св12540 0.0 1022486
12:00+27вюв12410 0.0 10211852
15:00+27всв223828 0.0 10212211
18:00+23всв246144 0.0 102184
21:00+18всв227349 0.0 102213